Location: Lahitte
(43.6596°N, 0.6805°E)
Time: 12:04:08
(UTC+00:00)

Cosmos 1758 Rocket - Pass Details

Date: 15 May 2026
Orbit: 596 x 627 km, 82.5° (Epoch: 5 June)

Event Time Altitude Azimuth Distance (km) Brightness Sun altitude
Rises 20:16:23 0° 359° (N) 2,895 7.6 -10.0°
Reaches altitude 10° 20:18:47 10° 9° (N) 1,990 6.6 -10.4°
Maximum altitude 20:22:50 35° 75° (ENE) 1,005 4.4 -10.9°
Enters shadow 20:25:51 16° 135° (SE) 1,627 5.0 -11.3°
